User: anonymous   Login
Location: Chenango Forks
(42.2242°N, 75.8278°W)
Time: 02:26:42
(UTC-04:00)
Language:

Coronas F rocket - Orbit

View from above orbital plane
View from above orbital plane
View from above satellite
View from above satellite

Ground track
Ground track

The orbit data is extracted from the following two-line orbital elements,

1 26874U 01032B   15215.87892956  .00013696  00000-0  12935-3 0  9999
2 26874 082.4643 266.4628 0009159 332.4057 027.6715 15.66789160785599
Epoch (UTC): 03 August 2015 21:05:39
Eccentricity: 0.0009159
inclination: 82.4643°
perigee height: 362 km
apogee height: 374 km
right ascension of ascending node: 266.4628°
argument of perigee: 332.4057°
revolutions per day: 15.66789160
mean anomaly at epoch: 27.6715°
orbit number at epoch: 78559

The dashed part of the orbit path shows where the satellite is in the earth's shadow,  

DLR